Location: Dob?e?
(49.9411°N, 15.1496°E)
Time: 01:32:22
(UTC+00:00)

X-37B - Pass Details

Date: 05 August 2021
Orbit: 381 x 393 km, 45.0° (Epoch: 29 August)

Event Time Altitude Azimuth Distance (km) Brightness Sun altitude
Exits shadow 01:20:29 13° 138° (SE) 1,227 3.0 -16.8°
Drops below altitude 10° 01:21:28 10° 120° (ESE) 1,396 3.4 -16.7°
Sets 01:24:14 0° 94° (E) 2,252 4.9 -16.4°
